This is the latest recevied weather packets stored in our database for station/object SR6WXP-0. If no packets are shown the sender has not sent any weather packets the latest 10 day(s).
| Time | Temp. | Humidity | Pressure | Rain* | Wind** | Luminosity | Snow |
|---|---|---|---|---|---|---|---|
| 1787898285 | 63° F | 76% | 745.4 mmHg | - | - | - | - |
| 1787884556 | 59° F | 83% | 745.8 mmHg | - | - | - | - |
| 1787884074 | 59° F | 83% | 745.9 mmHg | - | - | - | - |
| 1787881909 | 59° F | 83% | 746.1 mmHg | - | - | - | - |
| 1787881188 | 59° F | 82% | 746.1 mmHg | - | - | - | - |
| 1787880946 | 59° F | 82% | 746.1 mmHg | - | - | - | - |
| 1787879251 | 60° F | 81% | 746.3 mmHg | - | - | - | - |
| 1787879011 | 60° F | 81% | 746.3 mmHg | - | - | - | - |
| 1787872035 | 61° F | 77% | 607 mmHg | - | - | - | - |
| 1787869005 | 62° F | 74% | 747.6 mmHg | - | - | - | - |
| 1787866600 | 62° F | 72% | 747.7 mmHg | - | - | - | - |
| 1787863713 | 64° F | 69% | 747.6 mmHg | - | - | - | - |
| 1787863471 | 64° F | 69% | 747.7 mmHg | - | - | - | - |
| 1787862510 | 65° F | 67% | 747.7 mmHg | - | - | - | - |
| 1787860212 | 66° F | 64% | 747.7 mmHg | - | - | - | - |
| 1787859972 | 66° F | 64% | 747.7 mmHg | - | - | - | - |
| 1787857086 | 68° F | 59% | 748 mmHg | - | - | - | - |
| 1787856364 | 69° F | 58% | 747.9 mmHg | - | - | - | - |
| 1787814215 | 60° F | 86% | 748.6 mmHg | - | - | - | - |
| 1787787718 | 61° F | 94% | 748.4 mmHg | - | - | - | - |
| 1787786996 | 61° F | 94% | 748.4 mmHg | - | - | - | - |
| 1787784349 | 62° F | 96% | 748.5 mmHg | - | - | - | - |
| 1787783869 | 62° F | 95% | 748.5 mmHg | - | - | - | - |
| 1787783147 | 62° F | 96% | 748.4 mmHg | - | - | - | - |
| 1787782907 | 62° F | 96% | 748.4 mmHg | - | - | - | - |
* Rain since midnight (hover to see other rain measurements)
** Current wind speed in m/s (hover to see current wind gust speed)